User: anonymous   Login
Location: Bieg
(49.3499°N, 10.3835°E)
Time: 23:05:12
(UTC+00:00)
Language:

Cosmos 1025 Rocket - Orbit

View from above orbital plane
View from above orbital plane
View from above satellite
View from above satellite

Ground track
Ground track

The orbit data is extracted from the following two-line orbital elements,

1 10974U 78067B   24204.46583519  .00001177  00000-0  12308-3 0  9995
2 10974  82.4796 232.8445 0017649  33.7362 326.4975 14.88724871471804
Epoch (UTC): 22 July 2024 11:10:48
Eccentricity: 0.0017649
inclination: 82.4796°
perigee height: 589 km
apogee height: 614 km
right ascension of ascending node: 232.8445°
argument of perigee: 33.7362°
revolutions per day: 14.88724871
mean anomaly at epoch: 326.4975°
orbit number at epoch: 47180

The dashed part of the orbit path shows where the satellite is in the earth's shadow,  

DLR